Home   Weather   Praia   Past weeks
Flag for Cabo Verde

Past Weather in Praia, Cabo Verde — Yesterday and Last 2 Weeks

Now
77 °F

Partly sunny.


Feels Like: 79 °F
Forecast: N/A
Wind: 18 mph from Northeast

Location: Sal

Current Time: Mar 19, 2019 at 4:59:26 pm

Latest Report: Mar 19, 2019 at 4:00 pm


Visibility: N/A

Pressure: 29.89 "Hg

Humidity: 61%

Dew Point: 63 °F

Location of PraiaLocation

Past Weather in Praia — Graph

°F

Praia Temperature Yesterday

Maximum temperature yesterday: 82 °F (at 12:00 pm)
Minimum temperature yesterday: 68 °F (at 2:00 am)
Average temperature yesterday: 74 °F

High & Low Weather Summary for the Past Weeks

 TemperatureHumidityPressure
High86 °F (Mar 16, 3:00 pm)94% (Mar 11, 3:00 am)30.12 "Hg (Mar 11, 3:00 am)
Low66 °F (Mar 5, 2:00 am)27% (Mar 16, 2:00 pm)29.89 "Hg (Mar 17, 4:00 pm)
Average73 °F69%30.01 "Hg
* Reported Mar 4 4:00 pm — Mar 19 4:00 pm, Praia. Weather by CustomWeather, © 2019

Note: Actual official high and low records may vary slightly from our data, if they occured in-between our weather recording intervals... More about our weather records

Advertising

Praia Weather History for the Previous 24 Hours

Scroll right to see more
 ConditionsComfort  
Time TempWeatherWind HumidityBarometerVisibility
4:00 pm
Tue, Mar 19
77 °FPartly sunny.18 mph61%29.89 "HgN/A
3:00 pm77 °FPartly sunny.16 mph57%29.92 "HgN/A
2:00 pm79 °FPartly sunny.17 mph58%29.92 "HgN/A
1:00 pm79 °FSunny.17 mph58%29.95 "Hg10 mi
12:00 pm79 °FSunny.17 mph58%29.95 "Hg10 mi
11:00 am77 °FSunny.17 mph61%29.95 "Hg10 mi
10:00 am75 °FSunny.20 mph69%29.98 "Hg10 mi
9:00 am73 °FSunny.20 mph69%29.95 "Hg10 mi
8:00 am72 °FSunny.16 mph78%29.95 "Hg10 mi
7:00 am68 °FClear.16 mph83%29.92 "Hg6 mi
6:00 am68 °FClear.15 mph88%29.89 "Hg5 mi
5:00 am68 °FClear.15 mph88%29.89 "Hg5 mi
4:00 am68 °FClear.10 mph88%29.89 "Hg5 mi
3:00 am68 °FClear.10 mph88%29.89 "Hg5 mi
2:00 am68 °FClear.8 mph88%29.92 "Hg5 mi
1:00 am68 °FClear.9 mph88%29.95 "Hg5 mi
12:00 am70 °FClear.13 mph83%29.95 "Hg5 mi
11:00 pm
Mon, Mar 18
70 °FClear.15 mph83%29.95 "Hg6 mi
10:00 pm70 °FClear.16 mph83%29.95 "Hg6 mi
9:00 pm72 °FClear.18 mph78%29.95 "Hg6 mi
8:00 pm72 °FClear.18 mph78%29.92 "Hg6 mi
7:00 pm73 °FClear.17 mph74%29.92 "Hg6 mi
6:00 pm75 °FClear.17 mph65%29.89 "Hg10 mi
5:00 pm81 °FClear.15 mph48%29.89 "Hg10 mi
4:00 pm82 °FSunny.15 mph42%29.89 "Hg10 mi
Weather by CustomWeather, © 2019

See weather overview